This demonstration page uses our WeatherBlox Daily Observations layout. Learn more.

Left ArrowRight Arrow

41.12389, -100.76542

Hourly Observations for March 31, 2019

Temp ( °F °C ) Dew Point ( °F °C ) Humidity (%) Winds ( mph kmh ) Pressure ( in mb ) Visibility ( mi km ) Precip ( " mm )
12:53 am 00:53 Clear 17 -8.3 15 -9.4 92 92 NNW 5 7 30.50 1033 10 16 0.00 0.00
1:53 am 01:53 Clear 18 -7.8 16 -8.9 92 92 NNW 3 6 30.50 1033 10 16 0.00 0.00
2:53 am 02:53 Clear 16 -8.9 14 -10 92 92 NNW 5 7 30.50 1033 8 13 0.00 0.00
3:08 am 03:08 Clear with Mist and Fog 12 -11.1 12 -11.1 100 100 N 3 6 30.63 1037 2 2 0.00 0.00
3:15 am 03:15 Clear with Mist and Fog 13 -10.6 11 -11.7 92 92 N 3 6 30.62 1037 1 2 0.00 0.00
3:18 am 03:18 Clear with Mist and Fog 14 -10 11 -11.7 88 88 Calm 30.62 1037 2 3 0.00 0.00
3:26 am 03:26 Clear with Mist and Fog 15 -9.4 12 -11.1 88 88 NNW 3 6 30.61 1037 6 10 0.00 0.00
3:53 am 03:53 Clear 16 -8.9 13 -10.6 88 88 Calm 30.49 1032 9 14 0.00 0.00
4:12 am 04:12 Clear with Mist and Fog 12 -11.1 9 -12.8 87 87 Calm 30.62 1037 2 3 0.00 0.00
4:19 am 04:19 Clear with Mist and Fog 13 -10.6 10 -12.2 88 88 Calm 30.61 1037 1 1 0.00 0.00
4:24 am 04:24 Mostly Cloudy with Freezing Fog 11 -11.7 9 -12.8 92 92 Calm 30.63 1037 0 0 0.00 0.00
4:41 am 04:41 Mostly Cloudy with Mist and Fog 14 -10 11 -11.7 88 88 Calm 30.61 1036 1 2 0.00 0.00
4:50 am 04:50 Mostly Cloudy with Freezing Fog 12 -11 9 -13 85 85 Calm 30.62 1037 1 1 0.00 0.00
4:53 am 04:53 Mostly Cloudy with Haze 14 -10 9 -12.8 80 80 Calm 30.48 1032 0 0 0.00 0.00
5:06 am 05:06 Mostly Cloudy with Freezing Fog 14 -10 10 -12.2 84 84 Calm 30.60 1036 1 1 0.00 0.00
5:19 am 05:19 Hazy 13 -10.6 7 -13.9 77 77 Calm 30.61 1037 1 1 0.00 0.00
5:34 am 05:34 Clear with Mist and Fog 15 -9.4 11 -11.7 84 84 Calm 30.59 1036 2 3 0.00 0.00
5:37 am 05:37 Mostly Clear with Mist and Fog 14 -10 10 -12.2 84 84 Calm 30.60 1036 2 3 0.00 0.00
5:39 am 05:39 Mostly Cloudy with Mist and Fog 14 -10 10 -12.2 84 84 Calm 30.60 1036 1 2 0.00 0.00
5:46 am 05:46 Mostly Cloudy with Haze 14 -10 9 -12.8 80 80 Calm 30.60 1036 0 0 0.00 0.00
5:53 am 05:53 Mostly Cloudy with Haze 14 -10 8 -13.3 77 77 Calm 30.48 1032 0 0 0.00 0.00
6:14 am 06:14 Mostly Cloudy with Freezing Fog 13 -10.6 9 -12.8 84 84 Calm 30.61 1037 1 1 0.00 0.00
6:34 am 06:34 Hazy 13 -10.6 7 -13.9 77 77 Calm 30.61 1037 1 1 0.00 0.00
6:38 am 06:38 Mostly Cloudy with Haze 13 -10.6 7 -13.9 77 77 Calm 30.60 1036 0 0 0.00 0.00
6:53 am 06:53 Mostly Cloudy with Freezing Fog 13 -10.6 9 -12.8 84 84 Calm 30.48 1032 1 1 0.00 0.00
7:15 am 07:15 Mostly Cloudy with Haze 13 -10.6 8 -13.3 81 81 Calm 30.61 1037 0 0 0.00 0.00
7:53 am 07:53 Mostly Cloudy with Haze 13 -10.6 8 -13.3 81 81 Calm 30.49 1033 5 8 0.00 0.00
8:33 am 08:33 Mostly Cloudy with Haze 17 -8.3 12 -11.1 80 80 Calm 30.58 1036 1 1 0.00 0.03
8:37 am 08:37 Hazy 17 -8.3 12 -11.1 80 80 Calm 30.58 1036 1 2 0.00 0.03
8:40 am 08:40 Mostly Cloudy with Haze 17 -8.3 12 -11.1 80 80 Calm 30.58 1036 1 1 0.00 0.03
8:53 am 08:53 Hazy 19 -7.2 14 -10 81 81 Calm 30.49 1032 1 2 0.00 0.03
8:55 am 08:55 Sunny with Mist and Fog 19 -7.2 16 -8.9 88 88 Calm 30.57 1035 3 4 0.00 0.00
9:02 am 09:02 Sunny 20 -6.7 15 -9.4 81 81 Calm 30.56 1035 7 11 0.00 0.00
9:53 am 09:53 Sunny 25 -3.9 23 -5 92 92 Calm 30.47 1032 9 14 0.00 0.00
10:53 am 10:53 Sunny 29 -1.7 23 -5 78 78 NNW 3 6 30.46 1031 10 16 0.00 0.00
11:53 am 11:53 Sunny 36 2.2 27 -2.8 70 70 NW 8 13 30.43 1031 10 16 0.00 0.00
12:53 pm 12:53 Sunny 41 5 29 -1.7 62 62 NW 7 11 30.40 1030 10 16 0.00 0.00
1:53 pm 13:53 Sunny 43 6.1 31 -0.6 63 63 WNW 6 9 30.37 1028 10 16 0.00 0.00
2:53 pm 14:53 Sunny 44 6.7 32 0 63 63 WNW 8 13 30.34 1027 10 16 0.00 0.00
3:53 pm 15:53 Sunny 46 7.8 31 -0.6 56 56 WNW 10 17 30.30 1026 10 16 0.00 0.00
4:53 pm 16:53 Sunny 49 9.4 26 -3.3 41 41 WSW 8 13 30.27 1025 10 16 0.00 0.00
5:53 pm 17:53 Sunny 51 10.6 27 -2.8 39 39 WSW 7 11 30.25 1024 10 16 0.00 0.00
6:53 pm 18:53 Sunny 51 10.6 31 -0.6 46 46 W 6 9 30.24 1024 10 16 0.00 0.00
7:53 pm 19:53 Sunny 48 8.9 30 -1.1 50 50 Calm 30.23 1024 10 16 0.00 0.00
8:53 pm 20:53 Clear 40 4.4 30 -1.1 68 68 SSE 5 7 30.23 1024 10 16 0.00 0.00
9:53 pm 21:53 Clear 36 2.2 31 -0.6 82 82 Calm 30.23 1024 10 16 0.00 0.00
10:53 pm 22:53 Clear 36 2.2 29 -1.7 76 76 Calm 30.22 1023 10 16 0.00 0.00
11:53 pm 23:53 Clear 34 1.1 28 -2.2 79 79 Calm 30.20 1023 10 16 0.00 0.00

Powered by AerisWeather